Time,TemperatureF,DewpointF,PressureIn,WindDirection,WindDirectionDegrees,WindSpeedMPH,WindSpeedGustMPH,Humidity,HourlyPrecipIn,Conditions,Clouds,dailyrainin,SoftwareType,DateUTC
2013-12-14 00:22:00,26.0,15.0,30.33,NE,45,0.0,0.0,63,0.00,,,0.00,,2013-12-14 05:22:00,
2013-12-14 00:33:00,26.0,15.0,30.33,NE,45,0.0,0.0,63,0.00,,,0.00,,2013-12-14 05:33:00,
2013-12-14 00:53:00,26.0,16.0,30.33,NE,45,0.0,0.0,64,0.00,,,0.00,,2013-12-14 05:53:00,
2013-12-14 01:02:00,26.0,16.0,30.33,NE,45,0.0,0.0,64,0.00,,,0.00,,2013-12-14 06:02:00,
2013-12-14 01:22:00,26.0,16.0,30.33,NNW,338,0.0,14.0,66,0.00,,,0.00,,2013-12-14 06:22:00,
2013-12-14 01:42:00,26.0,16.0,30.33,NNW,338,0.0,14.0,66,0.00,,,0.00,,2013-12-14 06:42:00,
2013-12-14 01:52:00,26.0,16.0,30.33,NNW,338,0.0,14.0,66,0.00,,,0.00,,2013-12-14 06:52:00,
2013-12-14 02:02:00,26.0,16.0,30.33,NNW,338,0.0,14.0,66,0.00,,,0.00,,2013-12-14 07:02:00,
2013-12-14 02:23:00,24.0,15.0,30.39,NE,45,0.0,0.0,67,0.00,,,0.00,,2013-12-14 07:23:00,
2013-12-14 02:52:00,23.0,14.0,30.42,North,0,0.0,3.0,68,0.00,,,0.00,,2013-12-14 07:52:00,
2013-12-14 03:22:00,22.0,13.0,30.42,WNW,292,0.0,0.0,67,0.00,,,0.00,,2013-12-14 08:22:00,
2013-12-14 03:52:00,21.0,12.0,30.42,North,0,0.0,6.0,67,0.00,,,0.00,,2013-12-14 08:52:00,
2013-12-14 04:22:00,20.0,10.0,30.42,NE,45,0.0,4.0,65,0.00,,,0.00,,2013-12-14 09:22:00,
2013-12-14 04:54:00,19.0,9.0,30.42,NNE,22,0.0,0.0,65,0.00,,,4.37,,2013-12-14 09:54:00,
2013-12-14 05:12:00,19.0,9.0,30.42,NNE,22,0.0,0.0,65,0.00,,,4.37,,2013-12-14 10:12:00,
2013-12-14 05:23:00,19.0,9.0,30.42,NNE,22,0.0,0.0,65,0.00,,,4.37,,2013-12-14 10:23:00,
2013-12-14 05:53:00,19.0,9.0,30.47,North,0,0.0,0.0,64,0.00,,,0.00,,2013-12-14 10:53:00,
2013-12-14 06:23:00,18.0,8.0,30.47,NE,45,0.0,0.0,64,0.00,,,0.00,,2013-12-14 11:23:00,
2013-12-14 06:53:00,18.0,8.0,30.47,NNE,22,0.0,14.0,63,0.00,,,0.00,,2013-12-14 11:53:00,
2013-12-14 07:22:00,18.0,7.0,30.47,NNW,338,0.0,3.0,62,0.00,,,0.00,,2013-12-14 12:22:00,
2013-12-14 07:32:00,18.0,7.0,30.47,NNW,338,0.0,3.0,62,0.00,,,0.00,,2013-12-14 12:32:00,
2013-12-14 07:52:00,17.0,6.0,30.50,NNE,22,0.0,0.0,61,0.00,,,0.00,,2013-12-14 12:52:00,
2013-12-14 08:22:00,18.0,7.0,30.50,North,0,0.0,0.0,61,0.00,,,0.00,,2013-12-14 13:22:00,
2013-12-14 08:42:00,18.0,7.0,30.50,North,0,0.0,0.0,61,0.00,,,0.00,,2013-12-14 13:42:00,
2013-12-14 08:52:00,18.0,7.0,30.50,North,0,0.0,0.0,61,0.00,,,0.00,,2013-12-14 13:52:00,
2013-12-14 09:22:00,19.0,8.0,30.53,WNW,292,0.0,0.0,61,0.00,,,0.00,,2013-12-14 14:22:00,
2013-12-14 09:32:00,19.0,8.0,30.53,WNW,292,0.0,0.0,61,0.00,,,0.00,,2013-12-14 14:32:00,
2013-12-14 09:52:00,20.0,9.0,30.53,NE,45,0.0,8.0,61,0.00,,,0.00,,2013-12-14 14:52:00,
2013-12-14 10:22:00,20.0,9.0,30.53,NNE,22,0.0,0.0,61,0.00,,,0.00,,2013-12-14 15:22:00,
2013-12-14 10:53:00,22.0,11.0,30.53,NNW,338,0.0,14.0,63,0.00,,,0.00,,2013-12-14 15:53:00,
2013-12-14 11:13:00,22.0,11.0,30.53,NE,45,0.0,0.0,63,0.00,,,0.00,,2013-12-14 16:13:00,
2013-12-14 11:23:00,22.0,11.0,30.53,NE,45,0.0,0.0,63,0.00,,,0.00,,2013-12-14 16:23:00,
2013-12-14 11:33:00,22.0,11.0,30.53,NE,45,0.0,0.0,63,0.00,,,0.00,,2013-12-14 16:33:00,
2013-12-14 11:53:00,23.0,14.0,30.53,NE,45,0.0,0.0,67,0.00,,,0.00,,2013-12-14 16:53:00,
2013-12-14 12:23:00,24.0,15.0,30.53,NNW,338,0.0,5.0,68,0.00,,,0.00,,2013-12-14 17:23:00,
2013-12-14 12:33:00,24.0,15.0,30.53,NNW,338,0.0,5.0,68,0.00,,,0.00,,2013-12-14 17:33:00,
2013-12-14 12:42:00,24.0,15.0,30.53,NNW,338,0.0,5.0,68,0.00,,,0.00,,2013-12-14 17:42:00,
2013-12-14 12:53:00,24.0,15.0,30.53,NNW,338,0.0,5.0,68,0.00,,,0.00,,2013-12-14 17:53:00,
2013-12-14 13:22:00,24.0,16.0,30.50,North,0,0.0,0.0,71,0.00,,,0.00,,2013-12-14 18:22:00,
2013-12-14 13:52:00,26.0,19.0,30.47,East,90,0.0,0.0,74,0.00,,,0.00,,2013-12-14 18:52:00,
2013-12-14 14:22:00,26.0,19.0,30.47,ESE,112,0.0,7.0,75,0.00,,,0.00,,2013-12-14 19:22:00,
2013-12-14 14:52:00,26.0,19.0,30.47,ESE,112,0.0,0.0,75,0.00,,,0.00,,2013-12-14 19:52:00,
2013-12-14 15:22:00,26.0,19.0,30.47,ESE,112,0.0,5.0,75,0.00,,,0.00,,2013-12-14 20:22:00,
2013-12-14 15:54:00,26.0,19.0,30.47,East,90,0.0,4.0,76,0.00,,,0.00,,2013-12-14 20:54:00,
2013-12-14 16:22:00,26.0,20.0,30.47,ESE,112,0.0,4.0,77,0.00,,,0.00,,2013-12-14 21:22:00,
2013-12-14 16:54:00,26.0,20.0,30.45,ENE,68,0.0,0.0,78,0.00,,,0.00,,2013-12-14 21:54:00,
2013-12-14 17:23:00,26.0,21.0,30.42,NE,45,0.0,0.0,80,0.00,,,0.00,,2013-12-14 22:23:00,
2013-12-14 17:52:00,26.0,21.0,30.42,ENE,68,0.0,2.0,81,0.00,,,0.00,,2013-12-14 22:52:00,
2013-12-14 18:22:00,26.0,21.0,30.39,ESE,112,1.0,4.0,81,0.00,,,0.00,,2013-12-14 23:22:00,
2013-12-14 18:43:00,26.0,21.0,30.36,NE,45,5.0,12.0,81,0.00,,,0.00,,2013-12-14 23:43:00,
2013-12-14 18:53:00,26.0,21.0,30.36,NE,45,5.0,12.0,81,0.00,,,0.00,,2013-12-14 23:53:00,
2013-12-14 19:23:00,26.0,22.0,30.36,ESE,112,0.0,7.0,83,0.00,,,0.00,,2013-12-15 00:23:00,
2013-12-14 19:52:00,27.0,23.0,30.36,SE,135,0.0,3.0,84,0.00,,,0.00,,2013-12-15 00:52:00,
2013-12-14 20:21:00,28.0,24.0,30.33,ESE,112,0.0,7.0,84,0.00,,,0.00,,2013-12-15 01:21:00,
2013-12-14 20:52:00,29.0,25.0,30.30,ESE,112,4.0,14.0,85,0.00,,,0.00,,2013-12-15 01:52:00,
2013-12-14 21:02:00,29.0,25.0,30.30,ESE,112,4.0,14.0,85,0.00,,,0.00,,2013-12-15 02:02:00,
2013-12-14 21:22:00,29.0,25.0,30.27,ESE,112,4.0,10.0,85,0.00,,,0.00,,2013-12-15 02:22:00,
2013-12-14 21:42:00,30.0,26.0,30.27,ESE,112,6.0,10.0,86,0.00,,,0.00,,2013-12-15 02:42:00,
2013-12-14 21:52:00,30.0,26.0,30.27,ESE,112,6.0,10.0,86,0.00,,,0.00,,2013-12-15 02:52:00,
2013-12-14 22:12:00,30.0,27.0,30.24,ESE,112,3.0,8.0,87,0.00,,,0.00,,2013-12-15 03:12:00,
2013-12-14 22:22:00,30.0,27.0,30.24,ESE,112,3.0,8.0,87,0.00,,,0.00,,2013-12-15 03:22:00,
2013-12-14 22:33:00,30.0,27.0,30.24,ESE,112,3.0,8.0,87,0.00,,,0.00,,2013-12-15 03:33:00,
2013-12-14 22:43:00,30.0,27.0,30.24,ESE,112,3.0,8.0,87,0.00,,,0.00,,2013-12-15 03:43:00,
2013-12-14 23:03:00,-999.0,-99.9,30.18,ESE,112,3.0,13.0,-999,0.00,,,0.00,,2013-12-15 04:03:00,
2013-12-14 23:23:00,31.0,28.0,30.15,NE,45,11.0,13.0,88,0.00,,,0.00,,2013-12-15 04:23:00,
2013-12-14 23:53:00,32.0,29.0,30.12,ESE,112,2.0,9.0,88,0.00,,,0.00,,2013-12-15 04:53:00,